[[{"header":{"parameterUnit":"m.s-1","parameterCategory":2,"la1":30.2991,"la2":30.254,"lo1":-89.0895,"lo2":-89.0444,"dy":0.0017,"dx":0.0017,"nx":28,"ny":28,"refTime":"2026-01-01T09:00:00:Z","depth":"0","parameterNumber":2,"parameterNumberName":"U-component_of_CURRENTS"},"data":[0,0,0,0,0,0,0,0,0,0,0,0,0,0,0,0,0,0,0,0,0,0,0,0,0,0,0,0,0,0,0,0,0,0,0,0,0,0,0,0,0,0,0,0,0,0,0,0,0,0,0,0,0,0,0,0,0,0,0.335,0.335,0,0.3358,0.3358,0.3358,0.3331,0.3331,0.333,0.3329,0.3321,0.3321,0.3322,0,0,0,0,0,0,0,0,0,0,0,0,0,0.3334,0.3334,0.3349,0.335,0.335,0.3358,0.3358,0.3358,0.3331,0.3331,0.333,0.3329,0.3321,0.3321,0.3322,0,0,0,0,0,0,0,0,0,0,0,0,0,0.3339,0.3334,0.3349,0.334,0.3339,0.3358,0.3358,0.3358,0.3332,0.3331,0.333,0.3329,0.3321,0.3321,0.3322,0.3343,0,0,0.3323,0.3324,0,0,0,0,0,0,0,0,0.3339,0.3339,0.3341,0.334,0.334,0.3345,0.335,0.3353,0.3332,0.3332,0.3329,0.3328,0.333,0.3329,0.333,0.3343,0.3342,0.3323,0.3324,0.3324,0.3324,0,0,0,0,0,0,0,0.3338,0.3339,0.3351,0.3341,0.3341,0.3343,0.3342,0.335,0.3334,0.3332,0.333,0.3335,0.3329,0.333,0.333,0.3342,0.3323,0.3324,0.3324,0.3324,0.3401,0.3403,0,0,0,0,0,0,0.3342,0.3339,0.335,0.3351,0.334,0.3344,0.3343,0.3342,0.3334,0.3333,0.3336,0.3334,0.3329,0.3329,0.3329,0.3373,0.3324,0.3324,0.3325,0.34,0.3402,0.3404,0,0,0,0,0,0,0.3341,0.3343,0.335,0.3347,0.3349,0.3345,0.3344,0.3343,0.3347,0.3338,0.3335,0.3343,0.3328,0.3328,0.3346,0.3371,0.3325,0.3325,0.3398,0.34,0.3403,0.3447,0,0,0,0,0,0,0.3341,0.3342,0.3345,0.3347,0.3349,0.3367,0.3345,0.3344,0.3352,0.335,0.3343,0.3341,0.3328,0.3346,0.3347,0.3371,0.3326,0.3395,0.3399,0.3402,0.3444,0.3451,0.3458,0,0,0,0,0,0.334,0.3344,0.3345,0.3346,0.3352,0.3368,0.3369,0.3362,0.3354,0.3361,0.336,0.3341,0.3367,0.3348,0.3348,0.3373,0.3394,0.3398,0.3402,0.3441,0.345,0.3457,0,0,0,0,0,0,0.3336,0.3342,0.3343,0.3347,0.3362,0.3364,0.337,0.3371,0.3376,0.3373,0.336,0.3359,0.3389,0.3379,0.3357,0.3408,0.3379,0.3384,0.3409,0.3417,0.3424,0.343,0.3326,0,0,0,0,0,0.3339,0.3342,0.3355,0.336,0.3368,0.3373,0.338,0.338,0.3385,0.3386,0.3382,0.3387,0.3407,0.3408,0.3421,0.3443,0.3448,0.3463,0.347,0.3475,0.3483,0.3526,0.3537,0.3416,0.3416,0.3416,0,0,0.3337,0.3343,0.3344,0.336,0.3367,0.3386,0.3374,0.3389,0.3406,0.3386,0.3404,0.3414,0.3422,0.345,0.3462,0.3441,0.3512,0.348,0.3485,0.3489,0.3531,0.3543,0.3553,0.3419,0.3419,0.3418,0,0,0.3338,0.3344,0.3349,0.3367,0.3388,0.3398,0.3407,0.342,0.3425,0.3449,0.3448,0.3475,0.3486,0.3503,0.3512,0.3568,0.3554,0.3571,0.3601,0.3643,0.3653,0.3662,0.3677,0.3687,0.3566,0.3567,0.3567,0,0.3337,0.3343,0.3356,0.3374,0.3388,0.3407,0.3423,0.3442,0.3459,0.3476,0.3459,0.3515,0.3515,0.3569,0.3584,0.3584,0.3595,0.3564,0.3651,0.366,0.3669,0.3682,0.3692,0.3569,0.3569,0.3569,0.3568,0,0.3344,0.3356,0.3364,0.3392,0.3414,0.3431,0.3463,0.3487,0.3497,0.3519,0.3571,0.3582,0.3613,0.3624,0.3615,0.3683,0.3668,0.366,0.3626,0.3683,0.3693,0.3703,0.3573,0.3572,0.3571,0.3571,0,0,0.3317,0.3358,0.336,0.3372,0.3422,0.3435,0.3484,0.3529,0.3565,0.3592,0.3636,0.3677,0.3691,0.3704,0.371,0.3741,0.3802,0.3722,0.3723,0.373,0.388,0.3819,0.3823,0.3809,0.3811,0.3813,0.386,0,0.3315,0.3339,0.3368,0.3396,0.3409,0.3455,0.35,0.3551,0.3594,0.3646,0.3685,0.3731,0.3721,0.3737,0.3775,0.3804,0.3831,0.3788,0.383,0.3831,0.3764,0.3834,0.3672,0.3696,0.3869,0.3871,0.3872,0,0.3305,0.3323,0.3343,0.3391,0.3403,0.343,0.3502,0.3549,0.3647,0.3686,0.3753,0.3782,0.3849,0.382,0.3904,0.3877,0.3883,0.3895,0.3897,0.3832,0.3789,0.367,0.3707,0.3596,0.3887,0.3886,0.3885,0,0.3256,0.33,0.3309,0.3326,0.3392,0.3414,0.3458,0.3556,0.3612,0.3716,0.3763,0.3849,0.389,0.393,0.3956,0.3935,0.4034,0.4005,0.3956,0.3951,0.3816,0.3795,0.3743,0.406,0.406,0.4059,0.4059,0,0.3231,0.3235,0.3283,0.3287,0.3315,0.3379,0.3434,0.3504,0.3619,0.3685,0.3775,0.3837,0.3921,0.398,0.3989,0.4011,0.4064,0.3978,0.3971,0.3826,0.3806,0.3705,0.3674,0.4061,0.4061,0.406,0.406,0,0.3169,0.3201,0.3212,0.3269,0.3288,0.3308,0.3409,0.3456,0.3579,0.3667,0.3699,0.3851,0.3929,0.3993,0.4067,0.4047,0.3958,0.4058,0.3872,0.3842,0.3666,0.3645,0.3515,0.3417,0.4007,0.4006,0.4005,0,0.3137,0.3135,0.318,0.3185,0.3205,0.3251,0.3287,0.3419,0.3479,0.3659,0.369,0.3819,0.389,0.3998,0.3991,0.4008,0.3909,0.3856,0.3785,0.3649,0.362,0.3513,0.3432,0.3621,0.3617,0.3614,0.3612,0,0.3077,0.3091,0.31,0.3114,0.3133,0.3168,0.3229,0.3276,0.3424,0.3502,0.3621,0.3702,0.3824,0.3795,0.3838,0.3826,0.3666,0.3788,0.3699,0.3365,0.3193,0.3095,0.3589,0.3583,0.3586,0.3588,0.3589,0.359,0.3027,0.3014,0.3027,0.3026,0.3045,0.306,0.3049,0.3131,0.3202,0.3285,0.3463,0.3508,0.3583,0.3631,0.3603,0.3438,0.3469,0.3316,0.3317,0.3233,0.3082,0.3507,0.3462,0.3464,0.3465,0.3467,0.3468,0,0.2947,0.2938,0.2938,0.292,0.2887,0.2945,0.2979,0.2947,0.2951,0.3082,0.3165,0.3195,0.3177,0.3204,0.3118,0.2988,0.2866,0.2894,0.2699,0.2657,0.3074,0.2999,0.2786,0.2786,0.2786,0.2786,0.2786,0.2787,0.2907,0.286,0.2848,0.2757,0.2741,0.2659,0.2647,0.2626,0.2672,0.2665,0.2667,0.2767,0.289,0.2882,0.2723,0.2652,0.2455,0.2336,0.2363,0.2651,0.2689,0.2725,0.2646,0.2362,0.2362,0.181,0.1806,0.1803]},{"header":{"parameterUnit":"m.s-1","parameterCategory":2,"la1":30.2991,"la2":30.254,"lo1":-89.0895,"lo2":-89.0444,"dy":0.0017,"dx":0.0017,"nx":28,"ny":28,"refTime":"2026-01-01T09:00:00:Z","depth":"0","parameterNumber":3,"parameterNumberName":"V-component_of_CURRENTS"},"data":[0,0,0,0,0,0,0,0,0,0,0,0,0,0,0,0,0,0,0,0,0,0,0,0,0,0,0,0,0,0,0,0,0,0,0,0,0,0,0,0,0,0,0,0,0,0,0,0,0,0,0,0,0,0,0,0,0,0,0.0211,0.0211,0,0.0164,0.0163,0.0163,0.0123,0.0122,0.0122,0.0122,0.0058,0.0057,0.0056,0,0,0,0,0,0,0,0,0,0,0,0,0,0.0211,0.0211,0.0211,0.0211,0.021,0.0164,0.0163,0.0162,0.0123,0.0122,0.0122,0.0122,0.0059,0.0057,0.0055,0,0,0,0,0,0,0,0,0,0,0,0,0,0.019,0.0211,0.0211,0.0186,0.0184,0.0164,0.0163,0.0162,0.0123,0.0122,0.0122,0.0122,0.006,0.0057,0.0055,0.0049,0,0,0.0049,0.0048,0,0,0,0,0,0,0,0,0.0191,0.019,0.019,0.0188,0.0185,0.015,0.014,0.0124,0.0123,0.0144,0.0122,0.0122,0.0089,0.0085,0.0074,0.0047,0.0044,0.0048,0.0047,0.0046,0.0046,0,0,0,0,0,0,0,0.0193,0.0192,0.019,0.019,0.0187,0.0158,0.0155,0.0136,0.0118,0.0142,0.014,0.0138,0.0087,0.0076,0.0072,0.0043,0.0048,0.0047,0.0045,0.0044,0.0016,0.0017,0,0,0,0,0,0,0.0206,0.0193,0.0192,0.0189,0.019,0.0159,0.0156,0.016,0.0118,0.0112,0.0138,0.0136,0.008,0.0075,0.007,0.0083,0.0046,0.0044,0.0043,0.0016,0.0017,0.0017,0,0,0,0,0,0,0.0207,0.0207,0.0194,0.0191,0.0188,0.016,0.0165,0.016,0.0152,0.0115,0.0108,0.0137,0.008,0.0073,0.0061,0.0079,0.0043,0.0041,0.0015,0.0016,0.0017,0.0095,0,0,0,0,0,0,0.0207,0.0207,0.0214,0.0192,0.0188,0.0194,0.0166,0.0159,0.0152,0.0149,0.0113,0.0106,0.0079,0.0064,0.0058,0.0076,0.0039,0.0015,0.0016,0.0017,0.0092,0.0098,0.0104,0,0,0,0,0,0.0207,0.0225,0.0215,0.0214,0.0199,0.0195,0.0191,0.0168,0.0153,0.0158,0.0131,0.0107,0.0067,0.0063,0.0056,0.0073,0.0014,0.0015,0.0017,0.0089,0.0097,0.0104,0,0,0,0,0,0,0.0228,0.0222,0.021,0.0225,0.0215,0.019,0.0191,0.0175,0.0156,0.0151,0.0114,0.0106,0.01,0.0076,0.0073,0.0067,0.0037,0.0037,0.0094,0.0101,0.0107,0.0129,0.0038,0,0,0,0,0,0.0236,0.0247,0.0234,0.0244,0.0242,0.0216,0.0211,0.0197,0.0178,0.017,0.0144,0.0117,0.0099,0.0093,0.0069,0.007,0.0041,0.0075,0.0082,0.0087,0.0099,0.0071,0.0076,0.0021,0.0021,0.0021,0,0,0.0246,0.0244,0.0249,0.0249,0.0236,0.025,0.0212,0.0211,0.0222,0.0166,0.0169,0.0136,0.0102,0.0101,0.0096,0.0085,0.0087,0.0089,0.0094,0.0103,0.0073,0.0078,0.0083,0.0022,0.0022,0.0022,0,0,0.0277,0.027,0.0292,0.029,0.0283,0.0273,0.0278,0.0258,0.0248,0.0245,0.0208,0.019,0.0161,0.0145,0.0133,0.016,0.0117,0.015,0.0205,0.0178,0.0182,0.0186,0.0156,0.0156,0.0158,0.0159,0.0159,0,0.0288,0.0316,0.0296,0.0318,0.0327,0.0291,0.032,0.0306,0.0285,0.0287,0.0257,0.0219,0.0185,0.0192,0.0198,0.0176,0.015,0.0181,0.0187,0.019,0.0192,0.016,0.016,0.0162,0.0162,0.0162,0.0161,0,0.0338,0.0358,0.0372,0.0391,0.0397,0.0415,0.0401,0.0396,0.0376,0.0366,0.0357,0.0305,0.0287,0.0271,0.0242,0.0249,0.0222,0.0194,0.0171,0.0203,0.0167,0.0165,0.0168,0.0167,0.0166,0.0165,0,0,0.037,0.0403,0.0407,0.0433,0.044,0.0455,0.0468,0.0481,0.0505,0.0461,0.0482,0.0435,0.0404,0.0387,0.0343,0.0319,0.0305,0.0271,0.0268,0.0248,0.0243,0.0222,0.0217,0.0278,0.0278,0.0278,0.0211,0,0.0417,0.0481,0.0482,0.0542,0.0576,0.0554,0.0578,0.058,0.0572,0.058,0.052,0.052,0.045,0.0442,0.0406,0.0334,0.0303,0.0326,0.021,0.0206,0.019,0.0216,0.0237,0.0179,0.0208,0.0208,0.0208,0,0.0469,0.0508,0.0578,0.0631,0.0643,0.067,0.0708,0.0729,0.0724,0.0717,0.0694,0.0644,0.0603,0.0532,0.0425,0.0442,0.0353,0.0286,0.0281,0.0236,0.0183,0.0151,0.0173,0.0037,0.0204,0.0204,0.0204,0,0.0514,0.0576,0.0639,0.0656,0.0705,0.0726,0.0752,0.077,0.0813,0.0806,0.0823,0.0757,0.073,0.061,0.0461,0.0444,0.0335,0.0292,0.0188,0.0185,0.0168,0.0164,0.0052,0.0215,0.0215,0.0215,0.0215,0,0.057,0.0618,0.0664,0.0699,0.078,0.0788,0.0875,0.0882,0.0922,0.0989,0.0901,0.0926,0.0748,0.0656,0.0503,0.0347,0.0364,0.0207,0.0172,0.0195,0.0194,0.0045,-0.004,0.0213,0.0213,0.0214,0.0214,0,0.061,0.0637,0.0717,0.0779,0.0804,0.0864,0.0961,0.1027,0.1042,0.1118,0.1117,0.1062,0.0944,0.0751,0.0565,0.0419,0.0179,0.0193,0.0231,0.0201,-0.0023,-0.0104,-0.0259,-0.0304,0.0073,0.0073,0.0072,0,0.0638,0.0682,0.0778,0.0835,0.0866,0.0957,0.1028,0.1083,0.1167,0.1209,0.1256,0.1163,0.1133,0.085,0.057,0.0303,0.0158,0.014,0.011,-0.0022,-0.0139,-0.0197,-0.0227,0.0112,0.0112,0.0111,0.0111,0,0.0695,0.0724,0.079,0.0909,0.0993,0.1105,0.1209,0.1296,0.1363,0.143,0.1499,0.1475,0.1197,0.0951,0.0571,0.0381,0.0056,0.0127,-0.0018,-0.0119,-0.0181,-0.0244,0.0136,0.0109,0.0109,0.0109,0.011,0.011,0.0733,0.0791,0.0876,0.0991,0.1096,0.1235,0.1343,0.1466,0.161,0.1723,0.1692,0.1692,0.1302,0.0802,0.0525,0.0035,0.0025,-0.011,-0.0198,-0.0244,-0.0285,0.0091,0.0029,0.0029,0.0029,0.0029,0.0028,0,0.0781,0.0848,0.0955,0.1093,0.1218,0.1267,0.1453,0.1575,0.1757,0.1859,0.1928,0.1732,0.1276,0.0786,0.0112,-0.0222,-0.0326,-0.0409,-0.0486,-0.0501,-0.0172,-0.0165,-0.0261,-0.0261,-0.0261,-0.0261,-0.0261,-0.0261,0.0807,0.0907,0.0963,0.1166,0.1271,0.1449,0.1564,0.1746,0.1873,0.2013,0.2015,0.1987,0.1571,0.0391,-0.0364,-0.0523,-0.0739,-0.0812,-0.0913,-0.0697,-0.0675,-0.0655,-0.0668,-0.0868,-0.0869,-0.1176,-0.1179,-0.1182]}],[{"header":{"parameterUnit":"m.s-1","parameterCategory":2,"la1":30.2991,"la2":30.254,"lo1":-89.0895,"lo2":-89.0444,"dy":0.0017,"dx":0.0017,"nx":28,"ny":28,"refTime":"2026-01-01T09:00:00:Z","depth":"2","parameterNumber":2,"parameterNumberName":"U-component_of_CURRENTS"},"data":[0,0,0,0,0,0,0,0,0,0,0,0,0,0,0,0,0,0,0,0,0,0,0,0,0,0,0,0,0,0,0,0,0,0,0,0,0,0,0,0,0,0,0,0,0,0,0,0,0,0,0,0,0,0,0,0,0,0,0.2765,0.2765,0,0.2772,0.2772,0.2772,0.2759,0.2758,0.2758,0.2758,0.2754,0.2754,0.2754,0,0,0,0,0,0,0,0,0,0,0,0,0,0.2748,0.2748,0.2765,0.2765,0.2765,0.2772,0.2772,0.2772,0.2759,0.2758,0.2758,0.2758,0.2754,0.2754,0.2754,0,0,0,0,0,0,0,0,0,0,0,0,0,0.2753,0.2748,0.2765,0.2761,0.2761,0.2772,0.2772,0.2772,0.2759,0.2758,0.2758,0.2758,0.2754,0.2754,0.2754,0.2761,0,0,0.2754,0.2754,0,0,0,0,0,0,0,0,0.2752,0.2753,0.2762,0.2762,0.2762,0.2766,0.2764,0.2768,0.2759,0.2757,0.2758,0.2758,0.2759,0.2759,0.2757,0.2761,0.2761,0.2754,0.2755,0.2755,0.2755,0,0,0,0,0,0,0,0.2752,0.2753,0.2765,0.2762,0.2762,0.2763,0.2763,0.2765,0.2757,0.2757,0.2757,0.2762,0.2758,0.2757,0.2757,0.2761,0.2754,0.2755,0.2755,0.2755,0.2823,0.2824,0,0,0,0,0,0,0.2756,0.2752,0.2765,0.2765,0.2759,0.2763,0.2763,0.2763,0.2758,0.2757,0.2762,0.2761,0.2757,0.2757,0.2757,0.2805,0.2755,0.2755,0.2755,0.2821,0.2823,0.2825,0,0,0,0,0,0,0.2755,0.2757,0.2765,0.2761,0.2763,0.2764,0.2764,0.2763,0.2774,0.2762,0.2761,0.2775,0.2757,0.2757,0.2776,0.2803,0.2755,0.2755,0.2819,0.2822,0.2824,0.2876,0,0,0,0,0,0,0.2755,0.2756,0.2763,0.2761,0.2763,0.2781,0.2765,0.2764,0.2778,0.2777,0.2773,0.2771,0.2756,0.2776,0.2776,0.2803,0.2755,0.2817,0.282,0.2823,0.2872,0.288,0.2887,0,0,0,0,0,0.2754,0.276,0.2763,0.2765,0.277,0.2782,0.2783,0.2781,0.2779,0.2789,0.279,0.2772,0.2797,0.2777,0.2777,0.2804,0.2815,0.2819,0.2823,0.2869,0.2879,0.2887,0,0,0,0,0,0,0.2754,0.276,0.2762,0.277,0.2782,0.2781,0.2791,0.2793,0.2801,0.2803,0.2789,0.2788,0.2819,0.2808,0.2787,0.2836,0.2805,0.2809,0.2841,0.2849,0.2857,0.2864,0.2755,0,0,0,0,0,0.2759,0.2765,0.2774,0.2783,0.2791,0.2796,0.2803,0.2806,0.2811,0.2814,0.2813,0.2819,0.2834,0.2838,0.2846,0.2868,0.287,0.2888,0.2896,0.2902,0.291,0.2947,0.2959,0.2838,0.2838,0.2838,0,0,0.276,0.2767,0.2769,0.2784,0.2792,0.2809,0.2799,0.2817,0.2834,0.2814,0.2837,0.2846,0.2848,0.2876,0.2889,0.2868,0.2938,0.2907,0.2912,0.2917,0.2953,0.2964,0.2975,0.284,0.284,0.284,0,0,0.2766,0.2775,0.2783,0.2798,0.282,0.2827,0.2838,0.2851,0.286,0.2885,0.2883,0.2911,0.2921,0.2933,0.2939,0.2995,0.298,0.3,0.3036,0.3072,0.3082,0.3091,0.3106,0.3115,0.2998,0.2998,0.2998,0,0.277,0.2777,0.2789,0.2807,0.2821,0.2839,0.2856,0.2874,0.2892,0.2911,0.29,0.2951,0.295,0.2996,0.3015,0.3011,0.3022,0.2998,0.3081,0.309,0.3098,0.3111,0.3121,0.3001,0.3,0.3,0.3,0,0.2779,0.2793,0.2803,0.283,0.285,0.2869,0.2897,0.2923,0.2939,0.296,0.3012,0.302,0.3051,0.3059,0.3051,0.3116,0.3101,0.309,0.3056,0.3114,0.3123,0.3133,0.3005,0.3004,0.3003,0.3002,0,0,0.2761,0.2799,0.2803,0.2816,0.2863,0.2874,0.2922,0.2964,0.3002,0.3032,0.3078,0.3115,0.3133,0.3142,0.3146,0.3174,0.3237,0.3159,0.3159,0.3167,0.3309,0.3239,0.3242,0.3242,0.3244,0.3246,0.3291,0,0.2762,0.2787,0.2813,0.2843,0.2857,0.2899,0.2942,0.299,0.3035,0.3089,0.3124,0.3172,0.3161,0.3183,0.3216,0.3239,0.3266,0.3225,0.3257,0.3258,0.3184,0.3252,0.2996,0.3009,0.33,0.3301,0.3302,0,0.2756,0.2774,0.2797,0.2844,0.2856,0.2886,0.2957,0.3001,0.3094,0.3135,0.3202,0.3231,0.3295,0.3269,0.3341,0.3317,0.3322,0.3328,0.333,0.3252,0.3206,0.3,0.3015,0.3318,0.3317,0.3315,0.3314,0,0.2716,0.276,0.2773,0.2789,0.2852,0.2878,0.2922,0.3015,0.3068,0.3175,0.3225,0.3303,0.3346,0.3379,0.3399,0.3379,0.3464,0.3432,0.3371,0.3365,0.3147,0.3118,0.3481,0.3481,0.3481,0.3481,0.3481,0,0.2695,0.2705,0.2755,0.2762,0.2796,0.2855,0.2915,0.2983,0.3092,0.3156,0.3247,0.3304,0.3379,0.3429,0.3432,0.3438,0.3494,0.3394,0.3383,0.3157,0.3131,0.3395,0.3384,0.3482,0.3482,0.3482,0.3481,0,0.2643,0.2675,0.2692,0.2752,0.2774,0.28,0.2902,0.2947,0.3068,0.3155,0.3192,0.3328,0.3396,0.3448,0.3507,0.3474,0.3485,0.3466,0.319,0.3146,0.3349,0.3341,0.3404,0.3402,0.34,0.3399,0.3398,0,0.2615,0.2618,0.267,0.268,0.2705,0.2758,0.2794,0.2921,0.2976,0.315,0.3179,0.33,0.3354,0.3431,0.3401,0.34,0.3463,0.3149,0.3064,0.3364,0.3347,0.3341,0.3335,0.2791,0.2785,0.278,0.2776,0,0.2562,0.2582,0.2596,0.2618,0.2645,0.2678,0.2742,0.2784,0.2925,0.3,0.31,0.3166,0.3259,0.3153,0.3174,0.3136,0.3131,0.305,0.3445,0.2856,0.2792,0.2773,0.2787,0.2732,0.2737,0.274,0.2742,0.2744,0.252,0.2511,0.253,0.2538,0.2564,0.2573,0.2562,0.2638,0.2699,0.2774,0.2922,0.2925,0.2967,0.2869,0.278,0.2707,0.2921,0.2775,0.2788,0.2806,0.2734,0.267,0.2573,0.2577,0.2579,0.2582,0.2584,0,0.2447,0.2442,0.2447,0.2436,0.2407,0.247,0.2496,0.2457,0.2455,0.2565,0.2623,0.2428,0.2377,0.2409,0.2234,0.2235,0.2194,0.2138,0.2052,0.2099,0.214,0.203,0.1685,0.1682,0.1679,0.1676,0,0,0.2409,0.2368,0.2357,0.2273,0.2267,0.2192,0.2177,0.2149,0.2179,0.2146,0.2126,0.2308,0.2369,0.1999,0.1954,0.1785,0.1928,0.1719,0.245,0.2399,0.2435,0.2527,0.2414,0,0,0,0,0]},{"header":{"parameterUnit":"m.s-1","parameterCategory":2,"la1":30.2991,"la2":30.254,"lo1":-89.0895,"lo2":-89.0444,"dy":0.0017,"dx":0.0017,"nx":28,"ny":28,"refTime":"2026-01-01T09:00:00:Z","depth":"2","parameterNumber":3,"parameterNumberName":"V-component_of_CURRENTS"},"data":[0,0,0,0,0,0,0,0,0,0,0,0,0,0,0,0,0,0,0,0,0,0,0,0,0,0,0,0,0,0,0,0,0,0,0,0,0,0,0,0,0,0,0,0,0,0,0,0,0,0,0,0,0,0,0,0,0,0,0.0255,0.0255,0,0.0215,0.0214,0.0214,0.0183,0.0183,0.0183,0.0183,0.0133,0.0132,0.0131,0,0,0,0,0,0,0,0,0,0,0,0,0,0.0255,0.0255,0.0255,0.0254,0.0254,0.0215,0.0214,0.0214,0.0184,0.0183,0.0183,0.0183,0.0133,0.0132,0.013,0,0,0,0,0,0,0,0,0,0,0,0,0,0.0238,0.0255,0.0255,0.0235,0.0233,0.0215,0.0214,0.0214,0.0184,0.0183,0.0183,0.0183,0.0134,0.0132,0.013,0.0124,0,0,0.0125,0.0124,0,0,0,0,0,0,0,0,0.0239,0.0237,0.0239,0.0237,0.0234,0.0205,0.0196,0.0184,0.0184,0.0201,0.0183,0.0183,0.0157,0.0153,0.0145,0.0122,0.012,0.0125,0.0124,0.0123,0.0122,0,0,0,0,0,0,0,0.024,0.0239,0.0238,0.0238,0.0236,0.0211,0.0209,0.0193,0.018,0.0199,0.0198,0.0195,0.0156,0.0146,0.0143,0.0119,0.0125,0.0123,0.0122,0.0121,0.0093,0.0094,0,0,0,0,0,0,0.0251,0.024,0.0239,0.0237,0.0237,0.0212,0.0209,0.0214,0.018,0.0175,0.0195,0.0194,0.015,0.0145,0.0141,0.015,0.0123,0.0121,0.012,0.0093,0.0093,0.0094,0,0,0,0,0,0,0.0251,0.0251,0.0241,0.0238,0.0235,0.0213,0.0218,0.0213,0.0207,0.0177,0.0172,0.0195,0.0149,0.0144,0.0135,0.0148,0.012,0.0119,0.0093,0.0093,0.0094,0.0157,0,0,0,0,0,0,0.0251,0.0252,0.0258,0.0239,0.0236,0.024,0.0218,0.0212,0.0206,0.0204,0.0175,0.017,0.0149,0.0138,0.0133,0.0145,0.0117,0.0092,0.0093,0.0093,0.0154,0.016,0.0164,0,0,0,0,0,0.0251,0.0266,0.0258,0.0258,0.0245,0.0241,0.0237,0.0218,0.0207,0.0211,0.019,0.0171,0.0138,0.0137,0.0131,0.0143,0.0092,0.0093,0.0093,0.0152,0.0159,0.0164,0,0,0,0,0,0,0.0268,0.0264,0.0255,0.0267,0.0258,0.0236,0.0237,0.0224,0.021,0.0206,0.0176,0.017,0.0164,0.0145,0.0144,0.0135,0.0111,0.0111,0.0158,0.0163,0.0168,0.0186,0.0116,0,0,0,0,0,0.0276,0.0286,0.0273,0.0282,0.028,0.0259,0.0253,0.0242,0.0227,0.022,0.02,0.0178,0.0162,0.0157,0.0137,0.0136,0.0109,0.0138,0.0143,0.0147,0.0158,0.0125,0.0128,0.0096,0.0096,0.0096,0,0,0.0283,0.0283,0.0287,0.0286,0.0275,0.0286,0.0255,0.0253,0.0262,0.0217,0.0221,0.0192,0.0164,0.0161,0.0157,0.0149,0.0141,0.0148,0.0152,0.016,0.0126,0.0129,0.0132,0.0097,0.0097,0.0096,0,0,0.0309,0.0304,0.0323,0.0321,0.0314,0.0306,0.0309,0.0292,0.0283,0.0281,0.025,0.0233,0.021,0.0194,0.0183,0.0202,0.0164,0.0193,0.0238,0.0206,0.0209,0.0211,0.0178,0.0177,0.02,0.0201,0.0201,0,0.0318,0.0343,0.0326,0.0344,0.0352,0.0321,0.0346,0.0333,0.0314,0.0315,0.0291,0.0255,0.0227,0.0229,0.0233,0.0214,0.0189,0.0221,0.0213,0.0215,0.0215,0.0181,0.0179,0.0204,0.0203,0.0203,0.0203,0,0.036,0.0378,0.0389,0.0407,0.0412,0.0426,0.0413,0.0408,0.0391,0.0381,0.0369,0.0324,0.0307,0.029,0.0269,0.0266,0.0243,0.022,0.0202,0.0223,0.0185,0.0182,0.0208,0.0207,0.0206,0.0205,0,0,0.0386,0.0416,0.0419,0.0444,0.0449,0.0462,0.0471,0.048,0.0499,0.0458,0.0472,0.0429,0.0401,0.0386,0.0348,0.0319,0.0296,0.028,0.0276,0.0254,0.0225,0.0203,0.0197,0.0271,0.0271,0.0271,0.0196,0,0.0426,0.0483,0.0484,0.0536,0.0567,0.0547,0.0566,0.0566,0.0557,0.0559,0.05,0.0499,0.044,0.0433,0.0394,0.0324,0.029,0.0319,0.0203,0.02,0.0183,0.0193,0.0214,0.0148,0.0192,0.0191,0.0191,0,0.0471,0.0506,0.0568,0.0615,0.0626,0.0649,0.0681,0.0697,0.0685,0.0677,0.0652,0.0606,0.0561,0.0502,0.039,0.0412,0.0328,0.0263,0.0258,0.0216,0.0172,0.0134,0.0139,0.0184,0.0185,0.0185,0.0186,0,0.0511,0.0566,0.0624,0.0638,0.0681,0.07,0.0723,0.0733,0.0769,0.0756,0.0769,0.0699,0.067,0.0555,0.0414,0.0405,0.0282,0.0249,0.0149,0.0146,0.013,0.0127,0.0169,0.0169,0.0169,0.0169,0.0169,0,0.056,0.0604,0.0647,0.0677,0.075,0.0757,0.0832,0.0836,0.0864,0.0919,0.0838,0.0851,0.0682,0.0587,0.0446,0.029,0.0303,0.0161,0.0128,0.0152,0.0151,0.0156,0.0156,0.0166,0.0167,0.0167,0.0168,0,0.0596,0.0622,0.0693,0.0749,0.0772,0.0826,0.0912,0.0969,0.0977,0.1037,0.1036,0.097,0.0849,0.0665,0.0482,0.0345,0.0188,0.0127,0.0166,0.0139,0.0063,0.0067,0.001,0.0009,0.0008,0.0007,0.0006,0,0.0622,0.0661,0.0749,0.0801,0.0829,0.0912,0.0976,0.1022,0.1094,0.1116,0.1152,0.1053,0.1004,0.072,0.0463,0.0211,0.018,0.0063,0.0045,0.0075,0.0048,0.0054,0.0059,0.0044,0.0044,0.0043,0.0043,0,0.0671,0.0698,0.0759,0.0867,0.0945,0.1048,0.1141,0.1214,0.1268,0.1314,0.135,0.1307,0.1034,0.0784,0.0432,0.0267,0.0102,0.0048,0.007,0.0085,0.0102,0.0077,0.0082,0.004,0.004,0.0041,0.0041,0.0041,0.0705,0.0757,0.0836,0.0941,0.1038,0.1163,0.1258,0.136,0.1474,0.1543,0.1497,0.1433,0.1135,0.0693,0.0387,0.0071,0.0092,-0.0021,-0.0018,-0.0015,0.0007,0.0021,-0.0053,-0.0053,-0.0053,-0.0053,-0.0053,0,0.0747,0.0807,0.0905,0.1032,0.1145,0.1194,0.1356,0.1452,0.1589,0.1637,0.166,0.1373,0.1078,0.0732,0.0258,-0.0018,-0.003,-0.0103,-0.0063,-0.0057,-0.0053,-0.0032,-0.0103,-0.0104,-0.0105,-0.0106,0,0,0.0769,0.086,0.0911,0.1094,0.1191,0.1352,0.1451,0.1585,0.1662,0.1721,0.1682,0.1601,0.1173,0.0821,0.0437,0.0161,0.0123,0.0116,0.0188,0.0287,0.0294,0.0026,0.0068,0,0,0,0,0]}],[{"header":{"parameterUnit":"m.s-1","parameterCategory":2,"la1":30.2991,"la2":30.254,"lo1":-89.0895,"lo2":-89.0444,"dy":0.0017,"dx":0.0017,"nx":28,"ny":28,"refTime":"2026-01-01T09:00:00:Z","depth":"4","parameterNumber":2,"parameterNumberName":"U-component_of_CURRENTS"},"data":[0,0,0,0,0,0,0,0,0,0,0,0,0,0,0,0,0,0,0,0,0,0,0,0,0,0,0,0,0,0,0,0,0,0,0,0,0,0,0,0,0,0,0,0,0,0,0,0,0,0,0,0,0,0,0,0,0,0,0.1771,0.1772,0,0.1814,0.1814,0.1815,0.1858,0.1858,0.1859,0.186,0.1911,0.1911,0.1912,0,0,0,0,0,0,0,0,0,0,0,0,0,0.1715,0.1716,0.1771,0.1772,0.1773,0.1814,0.1814,0.1815,0.1857,0.1858,0.1859,0.186,0.191,0.1911,0.1912,0,0,0,0,0,0,0,0,0,0,0,0,0,0.1745,0.1716,0.1771,0.1801,0.1804,0.1814,0.1814,0.1815,0.1857,0.1858,0.186,0.1861,0.191,0.1911,0.1912,0.1894,0,0,0.1915,0.1915,0,0,0,0,0,0,0,0,0.1743,0.1746,0.1796,0.1799,0.1803,0.1834,0.1813,0.1843,0.1857,0.1834,0.186,0.1861,0.1886,0.1889,0.1891,0.1896,0.1899,0.1915,0.1915,0.1916,0.1916,0,0,0,0,0,0,0,0.1741,0.1745,0.1786,0.1797,0.1801,0.1808,0.1814,0.1819,0.1852,0.1837,0.184,0.1848,0.1888,0.189,0.1893,0.1899,0.1915,0.1916,0.1916,0.1917,0.2009,0.2011,0,0,0,0,0,0,0.174,0.1743,0.1785,0.1787,0.1778,0.1809,0.1814,0.1821,0.1851,0.1858,0.1847,0.185,0.1888,0.1892,0.1895,0.1977,0.1916,0.1917,0.1917,0.2008,0.201,0.2012,0,0,0,0,0,0,0.1738,0.1743,0.1783,0.1768,0.1774,0.1809,0.1815,0.1821,0.1863,0.186,0.1867,0.1889,0.1889,0.1893,0.1938,0.1976,0.1917,0.1918,0.2005,0.2008,0.2011,0.2077,0,0,0,0,0,0,0.1736,0.1742,0.1765,0.1768,0.1775,0.1814,0.1814,0.1821,0.1865,0.187,0.1897,0.19,0.189,0.1936,0.1938,0.1976,0.1919,0.2003,0.2007,0.201,0.2072,0.2081,0.2089,0,0,0,0,0,0.1734,0.1752,0.1766,0.1772,0.1799,0.1816,0.182,0.1846,0.1866,0.1888,0.1913,0.1902,0.1961,0.1938,0.1941,0.1979,0.2001,0.2006,0.201,0.2068,0.208,0.2089,0,0,0,0,0,0,0.1741,0.1759,0.1774,0.1798,0.182,0.1824,0.1854,0.1869,0.1905,0.1924,0.1921,0.1926,0.1981,0.1972,0.1947,0.2018,0.1981,0.1986,0.2025,0.2036,0.2044,0.2051,0.1919,0,0,0,0,0,0.1753,0.1775,0.1789,0.1815,0.183,0.185,0.1869,0.1887,0.1909,0.1928,0.1947,0.1971,0.1992,0.2009,0.2024,0.2058,0.2055,0.2087,0.2096,0.2103,0.2111,0.2144,0.2156,0.2026,0.2026,0.2026,0,0,0.1764,0.1778,0.1793,0.182,0.1841,0.1865,0.1866,0.1905,0.1935,0.1926,0.1987,0.2005,0.201,0.2052,0.2076,0.2054,0.2139,0.2108,0.2115,0.2119,0.2149,0.2162,0.2173,0.2029,0.2028,0.2028,0,0,0.1781,0.1812,0.1833,0.1854,0.1894,0.1904,0.1925,0.1954,0.1984,0.2032,0.204,0.2085,0.2114,0.2127,0.2134,0.22,0.2186,0.2213,0.2259,0.2291,0.2301,0.2311,0.2321,0.233,0.2214,0.2214,0.2214,0,0.18,0.1821,0.1844,0.1868,0.1893,0.1926,0.1953,0.1983,0.2028,0.2058,0.2066,0.214,0.2147,0.2195,0.2223,0.222,0.223,0.2216,0.2301,0.2311,0.2319,0.2327,0.2337,0.2218,0.2217,0.2217,0.2217,0,0.1816,0.1852,0.187,0.1911,0.1941,0.1973,0.201,0.2057,0.21,0.2127,0.2204,0.2222,0.2266,0.2279,0.2271,0.2341,0.2326,0.2309,0.2272,0.2336,0.234,0.2349,0.2223,0.2222,0.2221,0.222,0,0,0.1805,0.1868,0.188,0.1906,0.1968,0.1987,0.2051,0.2106,0.2159,0.2216,0.2278,0.2329,0.2358,0.237,0.2377,0.2405,0.2472,0.2392,0.2391,0.2396,0.2537,0.2372,0.2366,0.2476,0.2478,0.248,0.2515,0,0.1816,0.1861,0.1895,0.1951,0.1975,0.2032,0.2085,0.2148,0.2209,0.2281,0.2325,0.2391,0.2387,0.2424,0.2456,0.2474,0.25,0.2463,0.248,0.248,0.232,0.2372,0.2486,0.2522,0.2524,0.2525,0.2526,0,0.1811,0.1845,0.1897,0.1968,0.1987,0.2035,0.213,0.2184,0.2288,0.2343,0.2422,0.246,0.2532,0.2512,0.2579,0.2561,0.2562,0.2562,0.2563,0.2391,0.2331,0.2446,0.2542,0.2541,0.254,0.2538,0.2537,0,0.1767,0.1842,0.1885,0.191,0.1998,0.2048,0.2108,0.2213,0.2272,0.2397,0.2456,0.254,0.2595,0.2623,0.2638,0.2623,0.269,0.2661,0.2509,0.2497,0.2606,0.2595,0.2702,0.2702,0.2702,0.2702,0.2702,0,0.1738,0.1778,0.1877,0.1899,0.1966,0.204,0.213,0.2207,0.2325,0.239,0.2494,0.2544,0.2631,0.2673,0.2669,0.2615,0.2719,0.2523,0.2498,0.2632,0.2624,0.2611,0.26,0.2703,0.2703,0.2702,0.2702,0,0.1675,0.1741,0.1796,0.1905,0.1946,0.1999,0.2136,0.2189,0.2323,0.2411,0.2456,0.2578,0.2625,0.2676,0.2719,0.2636,0.261,0.2563,0.2708,0.2689,0.2386,0.2379,0.2388,0.2383,0.2378,0.2374,0.2371,0,0.164,0.1665,0.179,0.1827,0.1884,0.1978,0.2034,0.2177,0.2229,0.2398,0.2415,0.2525,0.258,0.2507,0.2578,0.2556,0.2523,0.249,0.2429,0.2381,0.2357,0.2357,0.2355,0.2364,0.2362,0.2361,0.236,0,0.1572,0.1638,0.1684,0.1762,0.1831,0.189,0.1983,0.2009,0.2155,0.2295,0.2314,0.2331,0.2376,0.2394,0.2401,0.238,0.25,0.2441,0.2449,0.2392,0.2351,0.2332,0.2336,0.2344,0.2346,0.2348,0.2349,0,0.153,0.1545,0.1619,0.1669,0.1748,0.1765,0.1833,0.1877,0.1946,0.2122,0.2122,0.2232,0.235,0.2303,0.2308,0.2279,0.2234,0.2144,0.2168,0.2186,0.2102,0.2019,0.1892,0,0,0,0,0,0.1472,0.1471,0.1513,0.155,0.162,0.1665,0.1772,0.184,0.1979,0.1935,0.2023,0.2049,0.2056,0.2117,0.2043,0.2217,0.2246,0.212,0.2157,0.2255,0.2273,0.2192,0,0,0,0,0,0,0.143,0.1469,0.1471,0.1438,0.144,0.1497,0.156,0.1657,0.1641,0.1791,0.1806,0.1918,0.1959,0.2072,0.2001,0.2018,0.1995,0.2195,0.2189,0.2244,0.2261,0.2276,0.2199,0,0,0,0,0]},{"header":{"parameterUnit":"m.s-1","parameterCategory":2,"la1":30.2991,"la2":30.254,"lo1":-89.0895,"lo2":-89.0444,"dy":0.0017,"dx":0.0017,"nx":28,"ny":28,"refTime":"2026-01-01T09:00:00:Z","depth":"4","parameterNumber":3,"parameterNumberName":"V-component_of_CURRENTS"},"data":[0,0,0,0,0,0,0,0,0,0,0,0,0,0,0,0,0,0,0,0,0,0,0,0,0,0,0,0,0,0,0,0,0,0,0,0,0,0,0,0,0,0,0,0,0,0,0,0,0,0,0,0,0,0,0,0,0,0,0.0211,0.0211,0,0.0189,0.0189,0.0189,0.0177,0.0177,0.0177,0.0177,0.0151,0.015,0.015,0,0,0,0,0,0,0,0,0,0,0,0,0,0.0207,0.0207,0.0211,0.0211,0.0211,0.0189,0.0189,0.0189,0.0177,0.0177,0.0177,0.0177,0.0151,0.015,0.015,0,0,0,0,0,0,0,0,0,0,0,0,0,0.0199,0.0208,0.0211,0.0203,0.0202,0.0189,0.0189,0.0189,0.0177,0.0177,0.0177,0.0177,0.0152,0.0151,0.0149,0.0142,0,0,0.0146,0.0146,0,0,0,0,0,0,0,0,0.02,0.0199,0.0204,0.0203,0.0202,0.0187,0.0178,0.0173,0.0177,0.0186,0.0177,0.0177,0.0163,0.0161,0.0156,0.014,0.0139,0.0146,0.0145,0.0145,0.0145,0,0,0,0,0,0,0,0.02,0.02,0.0202,0.0204,0.0203,0.0188,0.0187,0.0177,0.0174,0.0185,0.0184,0.0183,0.0162,0.0157,0.0155,0.0139,0.0146,0.0145,0.0144,0.0144,0.0123,0.0123,0,0,0,0,0,0,0.0206,0.0201,0.0203,0.0201,0.0202,0.0188,0.0187,0.0191,0.0174,0.0172,0.0183,0.0183,0.0159,0.0157,0.0154,0.0162,0.0145,0.0144,0.0143,0.0123,0.0123,0.0123,0,0,0,0,0,0,0.0206,0.0206,0.0203,0.02,0.0199,0.0189,0.0193,0.0191,0.0191,0.0172,0.017,0.0186,0.0159,0.0156,0.0153,0.016,0.0143,0.0142,0.0123,0.0123,0.0123,0.0167,0,0,0,0,0,0,0.0206,0.0207,0.0213,0.0201,0.0199,0.0204,0.0193,0.019,0.019,0.0189,0.0174,0.0171,0.0159,0.0154,0.0151,0.0159,0.0142,0.0123,0.0123,0.0123,0.0165,0.0168,0.0171,0,0,0,0,0,0.0206,0.0217,0.0214,0.0214,0.0208,0.0205,0.0203,0.0194,0.019,0.0194,0.0184,0.0172,0.0153,0.0154,0.015,0.0157,0.0123,0.0123,0.0123,0.0164,0.0168,0.0171,0,0,0,0,0,0,0.0217,0.0216,0.0213,0.0222,0.0217,0.0203,0.0206,0.0199,0.0193,0.0194,0.0176,0.0173,0.0171,0.0157,0.0158,0.015,0.0135,0.0134,0.0167,0.017,0.0173,0.0187,0.0141,0,0,0,0,0,0.0223,0.0232,0.0224,0.0232,0.0231,0.0219,0.0217,0.0212,0.0204,0.0202,0.0191,0.0178,0.0167,0.0165,0.0152,0.0151,0.0128,0.0151,0.0154,0.0157,0.0165,0.0132,0.0133,0.0124,0.0124,0.0124,0,0,0.0229,0.023,0.0234,0.0235,0.023,0.0238,0.0218,0.022,0.0227,0.0199,0.0207,0.0188,0.0169,0.0167,0.0165,0.0159,0.0147,0.0157,0.016,0.0167,0.0133,0.0134,0.0134,0.0124,0.0124,0.0124,0,0,0.0247,0.0247,0.0261,0.026,0.0258,0.0254,0.0257,0.0248,0.0244,0.0245,0.0226,0.0214,0.0201,0.0188,0.018,0.0191,0.0162,0.0186,0.0216,0.0183,0.0184,0.0184,0.0154,0.0151,0.0189,0.0189,0.0189,0,0.0254,0.0274,0.0263,0.0276,0.0284,0.0265,0.0284,0.0276,0.0267,0.0268,0.0254,0.0231,0.0211,0.0209,0.0212,0.0198,0.0176,0.0206,0.0188,0.0188,0.0187,0.0156,0.0152,0.0191,0.0191,0.0191,0.0191,0,0.0282,0.0299,0.0307,0.0322,0.0327,0.0339,0.0331,0.033,0.0322,0.0316,0.0309,0.0276,0.0265,0.0251,0.0237,0.0227,0.0211,0.0194,0.0181,0.0191,0.0157,0.0152,0.0194,0.0194,0.0193,0.0193,0,0,0.0298,0.0324,0.0328,0.0349,0.0356,0.0366,0.0374,0.0383,0.0398,0.037,0.038,0.0348,0.0329,0.0318,0.0289,0.026,0.0232,0.0232,0.0229,0.0207,0.0162,0.0147,0.014,0.0212,0.0212,0.0211,0.014,0,0.0326,0.0369,0.0373,0.0415,0.0439,0.0429,0.0445,0.0446,0.0442,0.0443,0.0397,0.0398,0.0355,0.0353,0.0315,0.0256,0.0223,0.0253,0.0153,0.015,0.0139,0.0135,0.021,0.0136,0.0135,0.0134,0.0133,0,0.0355,0.0383,0.0432,0.0474,0.0484,0.0505,0.0534,0.0547,0.0538,0.0533,0.0513,0.0478,0.0436,0.0395,0.0294,0.0317,0.0248,0.0193,0.0188,0.0158,0.0126,0.0123,0.0125,0.0126,0.0126,0.0127,0.0127,0,0.038,0.0427,0.0473,0.0486,0.0525,0.0545,0.0567,0.0577,0.0605,0.0595,0.0606,0.0543,0.0519,0.0421,0.0305,0.0302,0.0184,0.0164,0.0082,0.008,0.0096,0.0097,0.009,0.009,0.009,0.009,0.009,0,0.0409,0.0447,0.0492,0.0517,0.0579,0.0589,0.0654,0.0659,0.0682,0.0721,0.0661,0.0661,0.0525,0.0439,0.0324,0.019,0.0196,0.0088,0.0061,0.0115,0.0119,0.0093,0.0094,0.0088,0.0088,0.0089,0.0089,0,0.0427,0.0455,0.0515,0.0569,0.0594,0.064,0.0721,0.0764,0.0775,0.0817,0.0816,0.0751,0.064,0.0491,0.033,0.0226,0.0092,0.0042,0.0115,0.0093,0.0004,0.0009,-0.0052,-0.0053,-0.0054,-0.0055,-0.0056,0,0.044,0.0472,0.0557,0.0603,0.0634,0.071,0.0766,0.0809,0.0857,0.087,0.0886,0.0798,0.0731,0.0495,0.0334,0.0108,0.0072,-0.0002,-0.0004,0.0011,-0.001,-0.0004,0.0001,-0.0057,-0.0057,-0.0058,-0.0058,0,0.0463,0.0496,0.0546,0.0644,0.0715,0.0803,0.0881,0.0922,0.0965,0.0974,0.0944,0.0821,0.0692,0.0502,0.0325,0.0162,0.0043,-0.0012,-0.0012,-0.0014,0.0004,-0.0015,-0.0008,-0.0061,-0.0061,-0.006,-0.006,0,0.0482,0.0521,0.0592,0.0679,0.0774,0.0863,0.0908,0.0959,0.1003,0.1005,0.0993,0.085,0.077,0.053,0.0367,0.0203,0.0158,0.0096,0.0091,0.0092,0.0149,0.0194,0.0166,0,0,0,0,0,0.0496,0.0541,0.0622,0.0719,0.0816,0.0875,0.0969,0.1006,0.1042,0.1027,0.1012,0.0889,0.0651,0.0555,0.0389,0.0339,0.0124,0.0137,0.0049,-0.008,-0.0076,-0.0036,0,0,0,0,0,0,0.0503,0.0575,0.0618,0.0737,0.081,0.0921,0.0986,0.1014,0.1008,0.1011,0.0893,0.0834,0.0609,0.0743,0.038,0.0332,0.0249,0.003,0.0026,-0.0082,-0.0078,-0.0075,-0.0033,0,0,0,0,0]}]]